Time,TemperatureF,DewpointF,PressureIn,WindDirection,WindDirectionDegrees,WindSpeedMPH,WindSpeedGustMPH,Humidity,HourlyPrecipIn,Conditions,Clouds,dailyrainin,SoftwareType,DateUTC
2013-03-04 00:01:00,67.8,58.2,30.06,NE,47,9.0,23.0,71,0.00,,,0.00,PyWeather,2013-03-04 10:01:00,
2013-03-04 00:06:00,68.5,57.7,30.07,NE,34,12.0,23.0,68,0.00,,,0.00,PyWeather,2013-03-04 10:06:00,
2013-03-04 00:11:00,68.5,57.3,30.07,North,360,14.0,22.0,67,0.00,,,0.00,PyWeather,2013-03-04 10:11:00,
2013-03-04 00:16:00,68.3,57.5,30.06,North,350,13.0,22.0,68,0.00,,,0.00,PyWeather,2013-03-04 10:16:00,
2013-03-04 00:21:00,68.6,57.4,30.06,North,355,14.0,-999.0,67,0.00,,,0.00,PyWeather,2013-03-04 10:21:00,
2013-03-04 00:26:00,68.6,57.4,30.06,NNE,20,13.0,-999.0,67,0.00,,,0.00,PyWeather,2013-03-04 10:26:00,
2013-03-04 00:31:00,68.8,57.2,30.06,North,11,13.0,21.0,66,0.00,,,0.00,PyWeather,2013-03-04 10:31:00,
2013-03-04 00:36:00,68.4,56.4,30.07,ENE,75,14.0,21.0,65,0.00,,,0.00,PyWeather,2013-03-04 10:36:00,
2013-03-04 00:41:00,67.2,56.5,30.07,NE,39,11.0,22.0,68,0.00,,,0.00,PyWeather,2013-03-04 10:41:00,
2013-03-04 00:46:00,66.8,56.5,30.07,NNE,17,9.0,22.0,69,0.00,,,0.00,PyWeather,2013-03-04 10:46:00,
2013-03-04 00:51:00,67.3,57.0,30.06,NNW,344,8.0,-999.0,69,0.00,,,0.00,PyWeather,2013-03-04 10:51:00,
2013-03-04 00:56:00,68.0,56.8,30.06,North,360,10.0,-999.0,67,0.00,,,0.00,PyWeather,2013-03-04 10:56:00,
2013-03-04 01:01:00,68.6,56.5,30.06,NNE,17,12.0,-999.0,65,0.00,,,0.00,PyWeather,2013-03-04 11:01:00,
2013-03-04 01:06:00,68.5,56.5,30.06,NE,48,12.0,-999.0,65,0.00,,,0.00,PyWeather,2013-03-04 11:06:00,
2013-03-04 01:11:00,68.3,56.7,30.06,ENE,63,13.0,26.0,66,0.00,,,0.00,PyWeather,2013-03-04 11:11:00,
2013-03-04 01:16:00,68.4,56.8,30.06,NE,48,14.0,26.0,66,0.00,,,0.00,PyWeather,2013-03-04 11:16:00,
2013-03-04 01:21:00,68.1,56.9,30.06,NE,38,12.0,-999.0,67,0.00,,,0.00,PyWeather,2013-03-04 11:21:00,
2013-03-04 01:26:00,67.5,56.7,30.06,NE,53,10.0,-999.0,68,0.00,,,0.00,PyWeather,2013-03-04 11:26:00,
2013-03-04 01:31:00,67.1,56.8,30.06,NNE,31,9.0,-999.0,69,0.00,,,0.00,PyWeather,2013-03-04 11:31:00,
2013-03-04 01:36:00,67.0,57.1,30.06,NE,36,7.0,-999.0,70,0.00,,,0.00,PyWeather,2013-03-04 11:36:00,
2013-03-04 01:41:00,67.2,57.6,30.06,NE,44,7.0,-999.0,71,0.00,,,0.00,PyWeather,2013-03-04 11:41:00,
2013-03-04 01:46:00,67.4,57.8,30.06,NE,50,8.0,-999.0,71,0.00,,,0.00,PyWeather,2013-03-04 11:46:00,
2013-03-04 01:51:00,67.6,58.4,30.06,NE,46,7.0,-999.0,72,0.00,,,0.00,PyWeather,2013-03-04 11:51:00,
2013-03-04 01:56:00,68.0,58.8,30.06,North,355,7.0,-999.0,72,0.00,,,0.00,PyWeather,2013-03-04 11:56:00,
2013-03-04 02:01:00,68.3,58.7,30.05,North,355,8.0,-999.0,71,0.00,,,0.00,PyWeather,2013-03-04 12:01:00,
2013-03-04 02:06:00,68.7,59.1,30.04,North,355,10.0,-999.0,71,0.00,,,0.00,PyWeather,2013-03-04 12:06:00,
2013-03-04 02:11:00,68.8,59.2,30.04,NNW,338,12.0,17.0,71,0.00,,,0.00,PyWeather,2013-03-04 12:11:00,
2013-03-04 02:16:00,68.9,59.3,30.04,NE,38,15.0,17.0,71,0.00,,,0.00,PyWeather,2013-03-04 12:16:00,
2013-03-04 02:21:00,68.1,57.7,30.05,East,85,14.0,22.0,69,0.00,,,0.00,PyWeather,2013-03-04 12:21:00,
2013-03-04 02:26:00,67.5,58.3,30.05,ENE,63,11.0,22.0,72,0.00,,,0.00,PyWeather,2013-03-04 12:26:00,
2013-03-04 02:31:00,67.0,58.6,30.05,NE,35,7.0,19.0,74,0.00,,,0.00,PyWeather,2013-03-04 12:31:00,
2013-03-04 02:36:00,67.7,59.3,30.05,NNE,15,8.0,19.0,74,0.00,,,0.00,PyWeather,2013-03-04 12:36:00,
2013-03-04 02:41:00,68.0,59.5,30.04,NNE,14,10.0,15.0,74,0.00,,,0.00,PyWeather,2013-03-04 12:41:00,
2013-03-04 02:46:00,68.1,59.3,30.05,NE,51,10.0,15.0,73,0.00,,,0.00,PyWeather,2013-03-04 12:46:00,
2013-03-04 02:51:00,68.3,59.8,30.04,NNE,26,10.0,17.0,74,0.00,,,0.00,PyWeather,2013-03-04 12:51:00,
2013-03-04 02:56:00,68.4,59.9,30.04,NNE,33,11.0,17.0,74,0.00,,,0.00,PyWeather,2013-03-04 12:56:00,
2013-03-04 03:01:00,68.3,59.8,30.04,North,9,10.0,-999.0,74,0.00,,,0.00,PyWeather,2013-03-04 13:01:00,
2013-03-04 03:06:00,68.3,59.8,30.04,North,5,11.0,-999.0,74,0.00,,,0.00,PyWeather,2013-03-04 13:06:00,
2013-03-04 03:11:00,68.4,59.6,30.03,North,9,12.0,-999.0,73,0.00,,,0.00,PyWeather,2013-03-04 13:11:00,
2013-03-04 03:16:00,68.4,59.6,30.03,North,355,13.0,-999.0,73,0.00,,,0.00,PyWeather,2013-03-04 13:16:00,
2013-03-04 03:21:00,68.5,59.3,30.03,North,355,15.0,21.0,72,0.00,,,0.00,PyWeather,2013-03-04 13:21:00,
2013-03-04 03:26:00,68.7,59.1,30.03,NNE,24,16.0,21.0,71,0.00,,,0.00,PyWeather,2013-03-04 13:26:00,
2013-03-04 03:31:00,68.6,59.0,30.04,NNE,24,15.0,27.0,71,0.00,,,0.00,PyWeather,2013-03-04 13:31:00,
2013-03-04 03:36:00,68.6,59.4,30.04,NE,34,14.0,27.0,72,0.00,,,0.00,PyWeather,2013-03-04 13:36:00,
2013-03-04 03:41:00,68.5,59.3,30.04,NNE,16,14.0,21.0,72,0.00,,,0.00,PyWeather,2013-03-04 13:41:00,
2013-03-04 03:46:00,68.5,59.3,30.04,NE,34,14.0,21.0,72,0.00,,,0.00,PyWeather,2013-03-04 13:46:00,
2013-03-04 03:51:00,68.6,59.0,30.04,NNE,13,13.0,22.0,71,0.00,,,0.00,PyWeather,2013-03-04 13:51:00,
2013-03-04 03:56:00,68.8,58.8,30.04,NNE,22,14.0,22.0,70,0.00,,,0.00,PyWeather,2013-03-04 13:56:00,
2013-03-04 04:01:00,68.7,58.7,30.04,NNE,23,14.0,24.0,70,0.00,,,0.00,PyWeather,2013-03-04 14:01:00,
2013-03-04 04:06:00,68.6,58.6,30.04,NNE,13,13.0,24.0,70,0.00,,,0.00,PyWeather,2013-03-04 14:06:00,
2013-03-04 04:11:00,68.6,58.6,30.04,NNE,21,14.0,21.0,70,0.00,,,0.00,PyWeather,2013-03-04 14:11:00,
2013-03-04 04:16:00,68.5,58.5,30.03,NNE,31,13.0,21.0,70,0.00,,,0.00,PyWeather,2013-03-04 14:16:00,
2013-03-04 04:21:00,68.6,58.2,30.03,North,9,13.0,22.0,69,0.00,,,0.00,PyWeather,2013-03-04 14:21:00,
2013-03-04 04:26:00,68.7,57.9,30.02,NE,34,14.0,22.0,68,0.00,,,0.00,PyWeather,2013-03-04 14:26:00,
2013-03-04 04:31:00,68.5,57.3,30.04,ENE,76,15.0,30.0,67,0.00,,,0.00,PyWeather,2013-03-04 14:31:00,
2013-03-04 04:36:00,67.5,57.9,30.05,NNE,26,13.0,30.0,71,0.00,,,0.00,PyWeather,2013-03-04 14:36:00,
2013-03-04 04:41:00,68.0,58.0,30.05,NE,34,12.0,22.0,70,0.00,,,0.00,PyWeather,2013-03-04 14:41:00,
2013-03-04 04:46:00,68.1,58.1,30.05,North,355,13.0,22.0,70,0.00,,,0.00,PyWeather,2013-03-04 14:46:00,
2013-03-04 04:51:00,68.2,58.2,30.05,North,9,12.0,-999.0,70,0.00,,,0.00,PyWeather,2013-03-04 14:51:00,
2013-03-04 04:56:00,68.4,58.4,30.05,North,5,13.0,-999.0,70,0.00,,,0.00,PyWeather,2013-03-04 14:56:00,
2013-03-04 05:01:00,68.5,58.5,30.05,North,5,13.0,20.0,70,0.00,,,0.00,PyWeather,2013-03-04 15:01:00,
2013-03-04 05:06:00,68.7,58.3,30.04,North,9,14.0,20.0,69,0.00,,,0.00,PyWeather,2013-03-04 15:06:00,
2013-03-04 05:11:00,68.8,58.0,30.04,NNE,23,15.0,21.0,68,0.00,,,0.00,PyWeather,2013-03-04 15:11:00,
2013-03-04 05:16:00,68.8,57.6,30.05,NE,40,17.0,21.0,67,0.00,,,0.00,PyWeather,2013-03-04 15:16:00,
2013-03-04 05:21:00,68.8,57.6,30.06,NNE,26,17.0,28.0,67,0.00,,,0.00,PyWeather,2013-03-04 15:21:00,
2013-03-04 05:26:00,68.7,57.9,30.06,NNE,31,17.0,28.0,68,0.00,,,0.00,PyWeather,2013-03-04 15:26:00,
2013-03-04 05:31:00,68.5,57.7,30.06,North,9,13.0,24.0,68,0.00,,,0.00,PyWeather,2013-03-04 15:31:00,
2013-03-04 05:36:00,68.6,57.8,30.06,NE,40,13.0,24.0,68,0.00,,,0.00,PyWeather,2013-03-04 15:36:00,
2013-03-04 05:41:00,68.9,58.1,30.06,NNE,25,15.0,20.0,68,0.00,,,0.00,PyWeather,2013-03-04 15:41:00,
2013-03-04 05:46:00,69.1,58.3,30.06,NNE,15,14.0,20.0,68,0.00,,,0.00,PyWeather,2013-03-04 15:46:00,
2013-03-04 05:51:00,69.0,58.2,30.06,NNE,13,13.0,21.0,68,0.00,,,0.00,PyWeather,2013-03-04 15:51:00,
2013-03-04 05:56:00,69.1,58.3,30.06,NE,34,14.0,21.0,68,0.00,,,0.00,PyWeather,2013-03-04 15:56:00,
2013-03-04 06:02:00,69.1,58.3,30.06,NNE,30,16.0,25.0,68,0.00,,,0.00,PyWeather,2013-03-04 16:02:00,
2013-03-04 06:07:00,69.1,58.3,30.06,NNE,29,15.0,25.0,68,0.00,,,0.00,PyWeather,2013-03-04 16:07:00,
2013-03-04 06:12:00,68.9,57.7,30.06,North,360,14.0,23.0,67,0.00,,,0.00,PyWeather,2013-03-04 16:12:00,
2013-03-04 06:17:00,68.9,57.3,30.06,NNE,27,13.0,23.0,66,0.00,,,0.00,PyWeather,2013-03-04 16:17:00,
2013-03-04 06:22:00,69.2,57.1,30.07,NNE,32,15.0,21.0,65,0.00,,,0.00,PyWeather,2013-03-04 16:22:00,
2013-03-04 06:27:00,69.1,58.3,30.07,NNE,26,15.0,21.0,68,0.00,,,0.00,PyWeather,2013-03-04 16:27:00,
2013-03-04 06:32:00,68.9,60.0,30.07,NNE,26,15.0,24.0,73,0.00,,,0.00,PyWeather,2013-03-04 16:32:00,
2013-03-04 06:37:00,68.7,60.2,30.07,NNE,22,14.0,24.0,74,0.00,,,0.00,PyWeather,2013-03-04 16:37:00,
2013-03-04 06:42:00,68.8,60.7,30.07,NNE,28,15.0,22.0,75,0.00,,,0.00,PyWeather,2013-03-04 16:42:00,
2013-03-04 06:47:00,68.7,60.6,30.07,NNE,14,15.0,22.0,75,0.00,,,0.00,PyWeather,2013-03-04 16:47:00,
2013-03-04 06:52:00,68.6,60.5,30.07,North,355,16.0,26.0,75,0.00,,,0.00,PyWeather,2013-03-04 16:52:00,
2013-03-04 06:57:00,68.7,60.2,30.06,NNE,20,16.0,26.0,74,0.00,,,0.00,PyWeather,2013-03-04 16:57:00,
2013-03-04 07:02:00,68.7,60.2,30.07,North,11,16.0,24.0,74,0.00,,,0.00,PyWeather,2013-03-04 17:02:00,
2013-03-04 07:07:00,68.6,59.7,30.08,NNE,24,14.0,24.0,73,0.00,,,0.00,PyWeather,2013-03-04 17:07:00,
2013-03-04 07:12:00,68.7,59.5,30.07,NE,34,14.0,24.0,72,0.00,,,0.00,PyWeather,2013-03-04 17:12:00,
2013-03-04 07:17:00,68.8,59.2,30.07,NNE,15,13.0,24.0,71,0.00,,,0.00,PyWeather,2013-03-04 17:17:00,
2013-03-04 07:22:00,69.1,59.1,30.07,NNE,21,14.0,-999.0,70,0.00,,,0.00,PyWeather,2013-03-04 17:22:00,
2013-03-04 07:27:00,69.4,59.0,30.06,NNE,14,14.0,-999.0,69,0.00,,,0.00,PyWeather,2013-03-04 17:27:00,
2013-03-04 07:32:00,69.7,58.4,30.07,NNE,33,15.0,24.0,67,0.00,,,0.00,PyWeather,2013-03-04 17:32:00,
2013-03-04 07:37:00,69.9,58.2,30.07,NNE,26,17.0,24.0,66,0.00,,,0.00,PyWeather,2013-03-04 17:37:00,
2013-03-04 07:42:00,70.1,58.0,30.08,NNE,30,17.0,28.0,65,0.00,,,0.00,PyWeather,2013-03-04 17:42:00,
2013-03-04 07:47:00,70.3,58.6,30.08,NNE,18,16.0,28.0,66,0.00,,,0.00,PyWeather,2013-03-04 17:47:00,
2013-03-04 07:52:00,70.4,58.7,30.07,NNE,15,14.0,25.0,66,0.00,,,0.00,PyWeather,2013-03-04 17:52:00,
2013-03-04 07:57:00,70.7,59.0,30.08,North,360,15.0,25.0,66,0.00,,,0.00,PyWeather,2013-03-04 17:57:00,
2013-03-04 08:02:00,71.0,58.8,30.07,NE,41,15.0,23.0,65,0.00,,,0.00,PyWeather,2013-03-04 18:02:00,
2013-03-04 08:07:00,71.2,59.5,30.07,NNE,24,15.0,23.0,66,0.00,,,0.00,PyWeather,2013-03-04 18:07:00,
2013-03-04 08:12:00,71.4,57.9,30.07,North,355,15.0,24.0,62,0.00,,,0.00,PyWeather,2013-03-04 18:12:00,
2013-03-04 08:17:00,71.7,58.2,30.07,NNE,26,16.0,24.0,62,0.00,,,0.00,PyWeather,2013-03-04 18:17:00,
2013-03-04 08:22:00,71.9,57.4,30.07,NNE,30,18.0,29.0,60,0.00,,,0.00,PyWeather,2013-03-04 18:22:00,
2013-03-04 08:27:00,72.0,57.5,30.08,NE,49,19.0,29.0,60,0.00,,,0.00,PyWeather,2013-03-04 18:27:00,
2013-03-04 08:29:00,72.1,57.6,30.08,NNE,30,19.0,29.0,60,0.00,,,0.00,PyWeather,2013-03-04 18:29:00,
2013-03-04 08:30:00,72.1,57.6,30.08,NE,42,19.0,29.0,60,0.00,,,0.00,PyWeather,2013-03-04 18:30:00,
2013-03-04 08:31:00,72.1,57.6,30.08,NE,44,19.0,29.0,60,0.00,,,0.00,PyWeather,2013-03-04 18:31:00,
2013-03-04 08:36:00,72.4,57.9,30.08,NNE,30,18.0,29.0,60,0.00,,,0.00,PyWeather,2013-03-04 18:36:00,
2013-03-04 08:41:00,72.4,57.4,30.08,NE,36,19.0,27.0,59,0.00,,,0.00,PyWeather,2013-03-04 18:41:00,
2013-03-04 08:46:00,72.6,58.1,30.08,NE,49,19.0,27.0,60,0.00,,,0.00,PyWeather,2013-03-04 18:46:00,
2013-03-04 08:51:00,72.8,58.3,30.08,NE,43,18.0,28.0,60,0.00,,,0.00,PyWeather,2013-03-04 18:51:00,
2013-03-04 08:56:00,72.7,57.7,30.08,NNE,28,18.0,28.0,59,0.00,,,0.00,PyWeather,2013-03-04 18:56:00,
2013-03-04 09:01:00,73.3,58.8,30.06,NE,34,18.0,29.0,60,0.00,,,0.00,PyWeather,2013-03-04 19:01:00,
2013-03-04 09:06:00,73.8,58.3,30.08,ENE,57,18.0,29.0,58,0.00,,,0.00,PyWeather,2013-03-04 19:06:00,
2013-03-04 09:11:00,74.1,56.0,30.09,NE,45,16.0,30.0,53,0.00,,,0.00,PyWeather,2013-03-04 19:11:00,
2013-03-04 09:16:00,74.5,58.9,30.08,North,350,12.0,30.0,58,0.00,,,0.00,PyWeather,2013-03-04 19:16:00,
2013-03-04 09:21:00,74.2,59.6,30.08,North,9,13.0,22.0,60,0.00,,,0.00,PyWeather,2013-03-04 19:21:00,
2013-03-04 09:26:00,73.6,59.5,30.07,NE,34,17.0,22.0,61,0.00,,,0.00,PyWeather,2013-03-04 19:26:00,
2013-03-04 09:31:00,73.7,58.2,30.07,NNE,15,19.0,29.0,58,0.00,,,0.00,PyWeather,2013-03-04 19:31:00,
2013-03-04 09:36:00,74.4,58.4,30.06,NE,51,18.0,29.0,57,0.00,,,0.00,PyWeather,2013-03-04 19:36:00,
2013-03-04 09:41:00,74.5,57.9,30.06,NE,37,20.0,30.0,56,0.00,,,0.00,PyWeather,2013-03-04 19:41:00,
2013-03-04 09:46:00,74.7,57.6,30.06,NNE,32,21.0,30.0,55,0.00,,,0.00,PyWeather,2013-03-04 19:46:00,
2013-03-04 09:51:00,74.8,58.2,30.06,NE,54,21.0,31.0,56,0.00,,,0.00,PyWeather,2013-03-04 19:51:00,
2013-03-04 09:56:00,75.2,57.6,30.07,ENE,57,20.0,31.0,54,0.00,,,0.00,PyWeather,2013-03-04 19:56:00,
2013-03-04 10:01:00,75.5,57.8,30.07,East,81,17.0,32.0,54,0.00,,,0.00,PyWeather,2013-03-04 20:01:00,
2013-03-04 10:06:00,76.4,59.2,30.07,NE,51,12.0,32.0,55,0.00,,,0.00,PyWeather,2013-03-04 20:06:00,
2013-03-04 10:11:00,75.7,60.6,30.07,NE,36,15.0,34.0,59,0.00,,,0.00,PyWeather,2013-03-04 20:11:00,
2013-03-04 10:16:00,74.9,60.8,30.06,NE,40,19.0,34.0,61,0.00,,,0.00,PyWeather,2013-03-04 20:16:00,
2013-03-04 10:21:00,75.5,57.3,30.07,ENE,59,17.0,31.0,53,0.00,,,0.00,PyWeather,2013-03-04 20:21:00,
2013-03-04 10:26:00,75.9,59.8,30.08,NNE,14,14.0,31.0,57,0.00,,,0.00,PyWeather,2013-03-04 20:26:00,
2013-03-04 10:32:00,75.2,59.6,30.07,NE,44,16.0,30.0,58,0.00,,,0.00,PyWeather,2013-03-04 20:32:00,
2013-03-04 10:37:00,75.1,59.5,30.07,North,355,17.0,30.0,58,0.00,,,0.00,PyWeather,2013-03-04 20:37:00,
2013-03-04 10:42:00,75.0,59.4,30.07,NNE,28,16.0,26.0,58,0.00,,,0.00,PyWeather,2013-03-04 20:42:00,
2013-03-04 10:47:00,75.3,60.2,30.07,NNE,13,15.0,26.0,59,0.00,,,0.00,PyWeather,2013-03-04 20:47:00,
2013-03-04 10:52:00,75.5,59.9,30.06,ENE,57,14.0,24.0,58,0.00,,,0.00,PyWeather,2013-03-04 20:52:00,
2013-03-04 10:57:00,75.8,59.7,30.06,NE,40,16.0,24.0,57,0.00,,,0.00,PyWeather,2013-03-04 20:57:00,
2013-03-04 11:02:00,76.3,59.1,30.05,NE,34,18.0,27.0,55,0.00,,,0.00,PyWeather,2013-03-04 21:02:00,
2013-03-04 11:07:00,77.1,59.3,30.05,NNE,24,18.0,27.0,54,0.00,,,0.00,PyWeather,2013-03-04 21:07:00,
2013-03-04 11:12:00,78.0,58.5,30.04,ENE,66,16.0,34.0,51,0.00,,,0.00,PyWeather,2013-03-04 21:12:00,
2013-03-04 11:17:00,78.2,57.6,30.05,ENE,70,14.0,34.0,49,0.00,,,0.00,PyWeather,2013-03-04 21:17:00,
2013-03-04 11:22:00,77.8,57.8,30.05,NE,38,13.0,24.0,50,0.00,,,0.00,PyWeather,2013-03-04 21:22:00,
2013-03-04 11:27:00,78.0,58.0,30.05,NNE,26,15.0,24.0,50,0.00,,,0.00,PyWeather,2013-03-04 21:27:00,
2013-03-04 11:32:00,77.3,58.4,30.05,NE,39,17.0,27.0,52,0.00,,,0.00,PyWeather,2013-03-04 21:32:00,
2013-03-04 17:45:00,73.3,61.9,29.99,North,5,16.0,-999.0,67,0.00,,,0.00,PyWeather,2013-03-05 03:45:00,
2013-03-04 17:51:00,72.9,61.9,29.99,NNW,347,17.0,23.0,68,0.00,,,0.00,PyWeather,2013-03-05 03:51:00,
2013-03-04 17:56:00,72.3,61.8,29.99,North,355,18.0,23.0,69,0.00,,,0.00,PyWeather,2013-03-05 03:56:00,
2013-03-04 18:01:00,72.1,61.6,29.99,North,355,18.0,-999.0,69,0.00,,,0.00,PyWeather,2013-03-05 04:01:00,
2013-03-04 18:06:00,71.9,61.8,30.00,NNW,340,17.0,-999.0,70,0.00,,,0.00,PyWeather,2013-03-05 04:06:00,
2013-03-04 18:11:00,71.7,61.6,30.00,North,355,16.0,24.0,70,0.00,,,0.00,PyWeather,2013-03-05 04:11:00,
2013-03-04 18:16:00,71.5,61.4,30.00,North,360,16.0,24.0,70,0.00,,,0.00,PyWeather,2013-03-05 04:16:00,
2013-03-04 18:21:00,71.2,61.5,30.00,North,351,17.0,24.0,71,0.00,,,0.00,PyWeather,2013-03-05 04:21:00,
2013-03-04 18:26:00,71.1,61.4,30.00,North,350,17.0,24.0,71,0.00,,,0.00,PyWeather,2013-03-05 04:26:00,
2013-03-04 18:31:00,70.9,61.6,30.00,North,355,17.0,25.0,72,0.00,,,0.00,PyWeather,2013-03-05 04:31:00,
2013-03-04 18:36:00,70.8,61.5,30.00,North,360,17.0,25.0,72,0.00,,,0.00,PyWeather,2013-03-05 04:36:00,
2013-03-04 18:41:00,70.6,61.3,30.01,North,5,16.0,28.0,72,0.00,,,0.00,PyWeather,2013-03-05 04:41:00,
2013-03-04 18:46:00,70.3,61.4,30.01,North,351,16.0,28.0,73,0.00,,,0.00,PyWeather,2013-03-05 04:46:00,
2013-03-04 18:51:00,70.1,61.2,30.01,North,355,15.0,23.0,73,0.00,,,0.00,PyWeather,2013-03-05 04:51:00,
2013-03-04 18:56:00,69.9,61.4,30.01,North,11,14.0,23.0,74,0.00,,,0.00,PyWeather,2013-03-05 04:56:00,
2013-03-04 19:00:00,69.8,61.3,30.01,North,360,14.0,21.0,74,0.00,,,0.00,PyWeather,2013-03-05 05:00:00,
2013-03-04 19:01:00,69.9,61.4,30.01,NNE,25,14.0,21.0,74,0.00,,,0.00,PyWeather,2013-03-05 05:01:00,
2013-03-04 19:06:00,69.8,61.3,30.01,North,5,13.0,21.0,74,0.00,,,0.00,PyWeather,2013-03-05 05:06:00,
2013-03-04 19:11:00,69.7,61.2,30.01,North,5,13.0,23.0,74,0.00,,,0.00,PyWeather,2013-03-05 05:11:00,
2013-03-04 19:16:00,69.6,61.1,30.01,North,9,13.0,23.0,74,0.00,,,0.00,PyWeather,2013-03-05 05:16:00,
2013-03-04 19:21:00,69.6,61.1,30.01,North,355,14.0,21.0,74,0.00,,,0.00,PyWeather,2013-03-05 05:21:00,
2013-03-04 19:26:00,69.7,61.2,30.02,North,11,14.0,21.0,74,0.00,,,0.00,PyWeather,2013-03-05 05:26:00,
2013-03-04 19:31:00,69.7,61.2,30.02,NNE,23,15.0,23.0,74,0.00,,,0.00,PyWeather,2013-03-05 05:31:00,
2013-03-04 19:36:00,69.7,61.2,30.02,NE,39,15.0,23.0,74,0.00,,,0.00,PyWeather,2013-03-05 05:36:00,
2013-03-04 19:41:00,69.7,61.2,30.03,NNE,22,15.0,25.0,74,0.00,,,0.00,PyWeather,2013-03-05 05:41:00,
2013-03-04 19:46:00,69.6,61.5,30.02,NNE,19,15.0,25.0,75,0.00,,,0.00,PyWeather,2013-03-05 05:46:00,
2013-03-04 19:51:00,69.6,61.5,30.02,NNE,15,15.0,25.0,75,0.00,,,0.00,PyWeather,2013-03-05 05:51:00,
2013-03-04 19:56:00,69.7,61.2,30.03,NNE,14,15.0,25.0,74,0.00,,,0.00,PyWeather,2013-03-05 05:56:00,
2013-03-04 20:01:00,69.7,61.2,30.03,North,5,15.0,23.0,74,0.00,,,0.00,PyWeather,2013-03-05 06:01:00,
2013-03-04 20:06:00,69.7,61.2,30.03,NNE,12,15.0,23.0,74,0.00,,,0.00,PyWeather,2013-03-05 06:06:00,
2013-03-04 20:11:00,69.7,61.2,30.03,NNE,15,15.0,23.0,74,0.00,,,0.00,PyWeather,2013-03-05 06:11:00,
2013-03-04 20:16:00,69.7,61.2,30.03,North,355,16.0,23.0,74,0.00,,,0.00,PyWeather,2013-03-05 06:16:00,
2013-03-04 20:21:00,69.9,61.4,30.03,North,5,17.0,25.0,74,0.00,,,0.00,PyWeather,2013-03-05 06:21:00,
2013-03-04 20:26:00,69.8,61.3,30.04,North,351,17.0,25.0,74,0.00,,,0.00,PyWeather,2013-03-05 06:26:00,
2013-03-04 20:31:00,69.9,61.4,30.04,NNE,17,17.0,26.0,74,0.00,,,0.00,PyWeather,2013-03-05 06:31:00,
2013-03-04 20:36:00,69.7,61.2,30.04,NNE,13,16.0,26.0,74,0.00,,,0.00,PyWeather,2013-03-05 06:36:00,
2013-03-04 20:41:00,69.7,61.2,30.04,North,10,16.0,27.0,74,0.00,,,0.00,PyWeather,2013-03-05 06:41:00,
2013-03-04 20:46:00,69.6,61.5,30.05,NNE,13,15.0,27.0,75,0.00,,,0.00,PyWeather,2013-03-05 06:46:00,
2013-03-04 20:51:00,69.5,61.0,30.05,North,9,14.0,23.0,74,0.00,,,0.00,PyWeather,2013-03-05 06:51:00,
2013-03-04 20:56:00,69.6,61.1,30.05,NNE,12,14.0,23.0,74,0.00,,,0.00,PyWeather,2013-03-05 06:56:00,
2013-03-04 21:01:00,69.7,61.2,30.05,NNE,28,15.0,22.0,74,0.00,,,0.00,PyWeather,2013-03-05 07:01:00,
2013-03-04 21:06:00,69.7,61.2,30.04,NNE,13,15.0,22.0,74,0.00,,,0.00,PyWeather,2013-03-05 07:06:00,
2013-03-04 21:11:00,69.7,61.2,30.05,NNE,13,16.0,26.0,74,0.00,,,0.00,PyWeather,2013-03-05 07:11:00,
2013-03-04 21:16:00,69.7,60.8,30.05,NNE,17,16.0,26.0,73,0.00,,,0.00,PyWeather,2013-03-05 07:16:00,
2013-03-04 21:21:00,69.7,60.8,30.05,North,10,16.0,23.0,73,0.00,,,0.00,PyWeather,2013-03-05 07:21:00,
2013-03-04 21:26:00,69.6,60.3,30.05,North,9,16.0,23.0,72,0.00,,,0.00,PyWeather,2013-03-05 07:26:00,
2013-03-04 21:31:00,69.6,60.3,30.05,NNE,14,17.0,25.0,72,0.00,,,0.00,PyWeather,2013-03-05 07:31:00,
2013-03-04 21:36:00,69.6,59.9,30.05,North,360,16.0,25.0,71,0.00,,,0.00,PyWeather,2013-03-05 07:36:00,
2013-03-04 21:41:00,69.7,60.0,30.05,North,9,16.0,23.0,71,0.00,,,0.00,PyWeather,2013-03-05 07:41:00,
2013-03-04 21:46:00,69.5,59.9,30.06,NNE,21,16.0,23.0,71,0.00,,,0.00,PyWeather,2013-03-05 07:46:00,
2013-03-04 21:51:00,69.4,59.8,30.05,NE,36,15.0,24.0,71,0.00,,,0.00,PyWeather,2013-03-05 07:51:00,
2013-03-04 21:56:00,69.3,59.7,30.06,NNE,14,15.0,24.0,71,0.00,,,0.00,PyWeather,2013-03-05 07:56:00,
2013-03-04 22:01:00,69.2,59.2,30.06,NNE,33,14.0,22.0,70,0.00,,,0.00,PyWeather,2013-03-05 08:01:00,
2013-03-04 22:06:00,69.1,59.1,30.06,NNE,26,14.0,22.0,70,0.00,,,0.00,PyWeather,2013-03-05 08:06:00,
2013-03-04 22:11:00,69.2,59.2,30.05,North,9,14.0,21.0,70,0.00,,,0.00,PyWeather,2013-03-05 08:11:00,
2013-03-04 22:16:00,69.2,58.8,30.05,NNE,15,14.0,21.0,69,0.00,,,0.00,PyWeather,2013-03-05 08:16:00,
2013-03-04 22:21:00,69.2,58.8,30.05,NNE,32,14.0,-999.0,69,0.00,,,0.00,PyWeather,2013-03-05 08:21:00,
2013-03-04 22:26:00,69.2,59.2,30.05,North,11,14.0,-999.0,70,0.00,,,0.00,PyWeather,2013-03-05 08:26:00,
2013-03-04 22:31:00,69.1,59.1,30.05,NE,36,14.0,22.0,70,0.00,,,0.00,PyWeather,2013-03-05 08:31:00,
2013-03-04 22:36:00,69.1,58.7,30.05,NNE,19,14.0,22.0,69,0.00,,,0.00,PyWeather,2013-03-05 08:36:00,
2013-03-04 22:41:00,69.3,58.9,30.05,North,9,15.0,26.0,69,0.00,,,0.00,PyWeather,2013-03-05 08:41:00,
2013-03-04 22:46:00,69.2,58.8,30.05,North,355,15.0,26.0,69,0.00,,,0.00,PyWeather,2013-03-05 08:46:00,
2013-03-04 22:51:00,69.3,58.5,30.04,NNE,24,15.0,-999.0,68,0.00,,,0.00,PyWeather,2013-03-05 08:51:00,
2013-03-04 22:56:00,69.3,58.5,30.05,North,360,16.0,-999.0,68,0.00,,,0.00,PyWeather,2013-03-05 08:56:00,
2013-03-04 23:01:00,69.3,58.5,30.05,NNE,17,16.0,24.0,68,0.00,,,0.00,PyWeather,2013-03-05 09:01:00,
2013-03-04 23:06:00,69.2,58.4,30.05,NNE,13,16.0,24.0,68,0.00,,,0.00,PyWeather,2013-03-05 09:06:00,
2013-03-04 23:11:00,69.2,59.2,30.05,North,11,14.0,23.0,70,0.00,,,0.00,PyWeather,2013-03-05 09:11:00,
2013-03-04 23:16:00,69.2,59.2,30.05,North,350,14.0,23.0,70,0.00,,,0.00,PyWeather,2013-03-05 09:16:00,
2013-03-04 23:21:00,69.3,59.3,30.04,North,9,15.0,-999.0,70,0.00,,,0.00,PyWeather,2013-03-05 09:21:00,
2013-03-04 23:26:00,69.3,59.3,30.05,North,5,16.0,-999.0,70,0.00,,,0.00,PyWeather,2013-03-05 09:26:00,
2013-03-04 23:31:00,69.3,59.3,30.05,NNE,28,15.0,23.0,70,0.00,,,0.00,PyWeather,2013-03-05 09:31:00,
2013-03-04 23:36:00,69.0,59.0,30.04,North,360,14.0,23.0,70,0.00,,,0.00,PyWeather,2013-03-05 09:36:00,
2013-03-04 23:41:00,69.0,59.0,30.04,NNE,26,14.0,23.0,70,0.00,,,0.00,PyWeather,2013-03-05 09:41:00,
2013-03-04 23:46:00,69.0,59.0,30.05,North,9,15.0,23.0,70,0.00,,,0.00,PyWeather,2013-03-05 09:46:00,
2013-03-04 23:51:00,69.0,58.6,30.05,NNE,20,15.0,23.0,69,0.00,,,0.00,PyWeather,2013-03-05 09:51:00,
2013-03-04 23:56:00,69.0,58.6,30.05,North,5,15.0,23.0,69,0.00,,,0.00,PyWeather,2013-03-05 09:56:00,